Weather History for Colorado Springs, CO

Change the Weather History Date:

Wednesday, March 6, 2013

  Actual Average Record
Temperature  
Mean Temperature 39 °F 37 °F  
Max Temperature 56 °F 50 °F 73 °F (1972)
Min Temperature 21 °F 24 °F -11 °F (1943)
Degree Days  
Heating Degree Days 26 28  
Month to date heating degree days 175 175  
Since 1 July heating degree days 4519 4738  
Cooling Degree Days 0 0  
Month to date cooling degree days 0 0  
Year to date cooling degree days 0 0  
Moisture  
Dew Point 22 °F    
Average Humidity 54    
Maximum Humidity 84    
Minimum Humidity 24    
Precipitation  
Precipitation 0.00 in 0.03 in 0.68 in (1990)
Month to date precipitation 0.08 0.16  
Year to date precipitation 1.16 0.82  
Snow  
Snow 0.00 in 0.20 in 3.70 in (1990)
Month to date snowfall 3.0 1.4  
Since 1 July snowfall 23.1 25.4  
Snow Depth 0.00 in    
Sea Level Pressure  
Sea Level Pressure 30.04 in    
Wind  
Wind Speed 6 mph (ENE)    
Max Wind Speed 14 mph    
Max Gust Speed 16 mph    
Visibility 10 miles    
Events      
T = Trace of Precipitation, MM = Missing Value Source: NWS Daily Summary

Daily Weather History Graph

Daily Weather History Graph

Search for Another Location

Airport:

Trip Planner

Search our weather history database for the weather conditions in past years. The results will help you decide how hot, cold, wet, or windy it might be!

Date:

Astronomy

Mar. 06, 2013 Rise Set
Actual Time 6:23 AM MST 5:57 PM MST
Civil Twilight 5:56 AM MST 6:23 PM MST
Nautical Twilight 5:25 AM MST 6:54 PM MST
Astronomical Twilight 4:55 AM MST 7:25 PM MST
Moon 2:32 AM MST (3/6) 12:44 PM MST (3/6)
Length of Visible Light 12h 26m
Length of Day
11h 33m
Waning Crescent, 29% of the Moon is Illuminated
Mar 6
Waning Crescent
Mar 11
New
Mar 19
First Quarter
Mar 27
Full
Apr 2
Last Quarter

Hourly Weather History & Observations

Time (MST) Temp. Windchill Dew Point Humidity Pressure Visibility Wind Dir Wind Speed Gust Speed Precip Events Conditions
12:54 AM 23.0 °F 14.7 °F 16.0 °F 74% 30.27 in 10.0 mi North 6.9 mph - N/A   Clear
1:54 AM 21.9 °F 14.5 °F 16.0 °F 78% 30.24 in 10.0 mi North 5.8 mph - N/A   Clear
2:54 AM 21.9 °F 15.7 °F 17.1 °F 82% 30.20 in 9.0 mi NE 4.6 mph - N/A   Clear
3:54 AM 24.1 °F 19.7 °F 18.0 °F 77% 30.17 in 10.0 mi ENE 3.5 mph - N/A   Partly Cloudy
4:54 AM 25.0 °F 20.7 °F 18.0 °F 75% 30.17 in 10.0 mi North 3.5 mph - N/A   Clear
5:54 AM 28.0 °F 22.8 °F 19.9 °F 72% 30.16 in 10.0 mi East 4.6 mph - N/A   Partly Cloudy
6:54 AM 30.0 °F 25.2 °F 19.9 °F 66% 30.13 in 10.0 mi North 4.6 mph - N/A   Partly Cloudy
7:54 AM 30.9 °F 26.2 °F 19.0 °F 61% 30.14 in 10.0 mi East 4.6 mph - N/A   Clear
8:54 AM 35.1 °F - 21.0 °F 57% 30.12 in 10.0 mi Calm Calm - N/A   Clear
9:54 AM 39.0 °F 34.0 °F 27.0 °F 62% 30.10 in 10.0 mi NNE 6.9 mph - N/A   Clear
10:54 AM 39.9 °F 33.9 °F 28.0 °F 63% 30.09 in 10.0 mi SSE 9.2 mph - N/A   Clear
11:54 AM 43.0 °F 41.3 °F 23.0 °F 45% 30.05 in 10.0 mi East 3.5 mph - N/A   Clear
12:54 PM 52.0 °F - 21.9 °F 31% 29.96 in 10.0 mi ENE 3.5 mph - N/A   Clear
1:54 PM 55.0 °F - 19.9 °F 25% 29.92 in 10.0 mi SSE 10.4 mph - N/A   Clear
2:54 PM 52.0 °F - 27.0 °F 38% 29.94 in 10.0 mi SSE 12.7 mph - N/A   Clear
3:54 PM 53.1 °F - 26.1 °F 35% 29.91 in 10.0 mi SSE 10.4 mph - N/A   Clear
4:54 PM 50.0 °F - 24.1 °F 36% 29.91 in 10.0 mi SSE 9.2 mph - N/A   Clear
5:54 PM 46.9 °F - 24.1 °F 41% 29.92 in 10.0 mi South 6.9 mph - N/A   Partly Cloudy
6:54 PM 42.1 °F 37.7 °F 25.0 °F 51% 29.96 in 10.0 mi ENE 6.9 mph - N/A   Partly Cloudy
7:54 PM 39.9 °F - 23.0 °F 51% 29.96 in 10.0 mi Calm Calm - N/A   Clear
8:54 PM 42.1 °F 40.2 °F 23.0 °F 47% 29.93 in 10.0 mi ESE 3.5 mph - N/A   Clear
9:54 PM 46.0 °F 41.4 °F 24.1 °F 42% 29.87 in 10.0 mi ESE 9.2 mph - N/A   Clear
10:54 PM 35.1 °F 32.2 °F 24.1 °F 64% 29.91 in 10.0 mi NNW 3.5 mph - N/A   Clear
11:54 PM 32.0 °F 25.6 °F 21.9 °F 66% 29.91 in 10.0 mi North 6.9 mph - N/A   Clear